Volver al catálogo

CZ-6A DEB

ActivoSSO
NORAD 54312·DEBRIS·🇨🇳 China

Lanzado Nov 11, 2022 desde Taiyuan Satellite Launch Center

Loading…

Próximos Pases (próximas 24 horas)

TLE

ActualizadoSource: Space-Track

Época: Sep 14, 2026, 15:03 UTC

1 54312U 22151BF  26257.62730980  .00001252  00000-0  49214-3 0  9996
2 54312  98.8725 309.9078 0022039 233.0570 126.8594 14.30996063199306

Sigue CZ-6A DEB en tiempo real con AllMySat

Download on the App Store